[[{"header":{"parameterUnit":"m.s-1","parameterCategory":1,"la1":30.2991,"la2":30.254,"lo1":-89.0895,"lo2":-89.0444,"dy":0.0017,"dx":0.0017,"nx":28,"ny":28,"refTime":"2023-08-28T21:00:00:Z","depth":0,"parameterNumber":2,"parameterNumberName":"U-component_of_WINDS"},"data":[0,0,0,0,0,0,0,0,0,0,0,0,0,0,0,0,0,0,0,0,0,0,0,0,0,0,0,0,0,0,0,0,0,0,0,0,0,0,0,0,0,0,0,0,0,0,0,0,0,0,0,0,0,0,0,0,0,0,-2.6673,-2.6674,0,-2.6822,-2.6824,-2.6826,-2.6828,-2.6826,-2.6824,-2.6823,-2.6974,-2.698,-2.6986,0,0,0,0,0,0,0,0,0,0,0,0,0,-2.6391,-2.6396,-2.6672,-2.6674,-2.6676,-2.6822,-2.6824,-2.6826,-2.6828,-2.6826,-2.6824,-2.6822,-2.6972,-2.6979,-2.6986,0,0,0,0,0,0,0,0,0,0,0,0,0,-2.6524,-2.6398,-2.6672,-2.6695,-2.6699,-2.6822,-2.6824,-2.6827,-2.6829,-2.6826,-2.6823,-2.6821,-2.697,-2.6979,-2.6987,-2.7097,0,0,-2.7014,-2.7017,0,0,0,0,0,0,0,0,-2.6517,-2.6535,-2.669,-2.6694,-2.6698,-2.6804,-2.678,-2.6917,-2.683,-2.6779,-2.6822,-2.6819,-2.692,-2.6932,-2.6967,-2.7104,-2.7111,-2.7014,-2.702,-2.7023,-2.7026,0,0,0,0,0,0,0,-2.6507,-2.6528,-2.6732,-2.6692,-2.6697,-2.6699,-2.6714,-2.6806,-2.6863,-2.6783,-2.6784,-2.6802,-2.6921,-2.6958,-2.697,-2.7113,-2.7014,-2.7022,-2.7027,-2.7031,-2.7352,-2.7355,0,0,0,0,0,0,-2.6494,-2.652,-2.6727,-2.6736,-2.6599,-2.6706,-2.6724,-2.6772,-2.6862,-2.6873,-2.6804,-2.6801,-2.6945,-2.696,-2.6975,-2.7112,-2.7023,-2.7031,-2.7036,-2.7349,-2.7353,-2.7357,0,0,0,0,0,0,-2.6487,-2.6512,-2.6721,-2.6629,-2.6655,-2.6714,-2.6769,-2.6777,-2.6814,-2.6878,-2.6888,-2.6831,-2.6943,-2.6963,-2.7068,-2.7117,-2.7035,-2.7043,-2.7345,-2.735,-2.7355,-2.7384,0,0,0,0,0,0,-2.6479,-2.651,-2.6551,-2.663,-2.666,-2.681,-2.6772,-2.6782,-2.6829,-2.6827,-2.6906,-2.6916,-2.6942,-2.7055,-2.7076,-2.7128,-2.705,-2.7341,-2.7347,-2.7353,-2.7379,-2.739,-2.7399,0,0,0,0,0,-2.6469,-2.6552,-2.6553,-2.6578,-2.6713,-2.6813,-2.683,-2.6859,-2.6833,-2.6876,-2.6918,-2.6914,-2.7109,-2.7065,-2.709,-2.7144,-2.7338,-2.7345,-2.7353,-2.7375,-2.7388,-2.7398,0,0,0,0,0,0,-2.6476,-2.6563,-2.6564,-2.6675,-2.6737,-2.6813,-2.6867,-2.6871,-2.6941,-2.6936,-2.6968,-2.6986,-2.7091,-2.7128,-2.7079,-2.7258,-2.722,-2.7233,-2.7229,-2.7241,-2.7251,-2.7239,-2.7057,0,0,0,0,0,-2.6491,-2.6564,-2.6636,-2.6727,-2.6758,-2.6808,-2.6852,-2.687,-2.6934,-2.696,-2.7009,-2.7072,-2.7149,-2.7197,-2.727,-2.7386,-2.7404,-2.7436,-2.7445,-2.7453,-2.7463,-2.753,-2.7545,-2.7381,-2.7381,-2.7381,0,0,-2.6521,-2.6578,-2.6622,-2.673,-2.678,-2.6856,-2.6829,-2.691,-2.6967,-2.6972,-2.7074,-2.7113,-2.7186,-2.7297,-2.7349,-2.7332,-2.7513,-2.7463,-2.7468,-2.7474,-2.7539,-2.7555,-2.7568,-2.7386,-2.7385,-2.7385,0,0,-2.6616,-2.6666,-2.6748,-2.6799,-2.6876,-2.6909,-2.6929,-2.7006,-2.7033,-2.7136,-2.7143,-2.7212,-2.7341,-2.7394,-2.7437,-2.7558,-2.7557,-2.7581,-2.7631,-2.7696,-2.7709,-2.772,-2.7764,-2.7779,-2.7591,-2.7591,-2.7591,0,-2.6644,-2.6758,-2.679,-2.6872,-2.692,-2.6931,-2.7016,-2.7064,-2.716,-2.7194,-2.7174,-2.7339,-2.7389,-2.7514,-2.7544,-2.7579,-2.7603,-2.757,-2.7704,-2.7716,-2.7728,-2.777,-2.7786,-2.7593,-2.7593,-2.7593,-2.7593,0,-2.679,-2.687,-2.6927,-2.7022,-2.7077,-2.716,-2.7205,-2.7258,-2.7272,-2.7308,-2.7415,-2.7476,-2.7563,-2.7595,-2.7608,-2.7723,-2.771,-2.7697,-2.766,-2.7745,-2.7785,-2.7802,-2.7597,-2.7596,-2.7595,-2.7595,0,0,-2.6888,-2.7003,-2.7023,-2.7068,-2.7155,-2.7218,-2.7303,-2.739,-2.7435,-2.7503,-2.7575,-2.7688,-2.7677,-2.7727,-2.7748,-2.7804,-2.7898,-2.7785,-2.7787,-2.7804,-2.8031,-2.8039,-2.8057,-2.79,-2.7903,-2.7906,-2.8025,0,-2.6992,-2.7143,-2.7176,-2.7306,-2.7382,-2.7396,-2.7471,-2.7533,-2.7571,-2.7641,-2.7682,-2.7762,-2.7742,-2.7772,-2.7829,-2.7875,-2.7944,-2.7867,-2.7968,-2.7972,-2.7948,-2.8078,-2.8087,-2.8196,-2.8041,-2.8043,-2.8045,0,-2.7132,-2.7205,-2.7343,-2.7424,-2.7457,-2.7523,-2.7608,-2.7675,-2.7748,-2.7771,-2.7829,-2.7845,-2.7936,-2.7897,-2.8024,-2.797,-2.8015,-2.8044,-2.8049,-2.8058,-2.8012,-2.8091,-2.8231,-2.8247,-2.807,-2.8068,-2.8066,0,-2.719,-2.7323,-2.7424,-2.7462,-2.7559,-2.7606,-2.7648,-2.7719,-2.777,-2.7844,-2.7878,-2.7962,-2.8007,-2.8072,-2.8111,-2.8079,-2.8236,-2.8199,-2.8258,-2.8257,-2.8288,-2.8285,-2.8437,-2.8319,-2.8318,-2.8318,-2.8318,0,-2.7302,-2.7386,-2.7452,-2.7514,-2.761,-2.7649,-2.7743,-2.7786,-2.785,-2.7921,-2.7939,-2.8006,-2.8053,-2.8127,-2.8159,-2.826,-2.828,-2.8302,-2.8309,-2.83,-2.8298,-2.8328,-2.8322,-2.8322,-2.8321,-2.8321,-2.832,0,-2.7382,-2.743,-2.7541,-2.7625,-2.7649,-2.7716,-2.7789,-2.785,-2.789,-2.7981,-2.8004,-2.8066,-2.8155,-2.8201,-2.8311,-2.8333,-2.8447,-2.845,-2.8422,-2.8425,-2.8482,-2.8476,-2.8658,-2.8684,-2.8548,-2.855,-2.8551,0,-2.7449,-2.7515,-2.7608,-2.7657,-2.7702,-2.7781,-2.7835,-2.7877,-2.7932,-2.8023,-2.8074,-2.8165,-2.8238,-2.838,-2.8436,-2.8521,-2.8526,-2.8584,-2.8538,-2.8528,-2.8527,-2.8522,-2.853,-2.8591,-2.8592,-2.8593,-2.8594,0,-2.7564,-2.7586,-2.7662,-2.7748,-2.7812,-2.7881,-2.795,-2.799,-2.8044,-2.8106,-2.8197,-2.8255,-2.837,-2.846,-2.855,-2.8596,-2.8605,-2.8609,-2.8627,-2.8618,-2.8599,-2.8611,-2.8444,-2.8604,-2.8603,-2.8602,-2.8602,-2.8601,-2.764,-2.77,-2.7776,-2.7861,-2.7918,-2.7983,-2.8046,-2.8096,-2.8173,-2.827,-2.8291,-2.8389,-2.8464,-2.8587,-2.8636,-2.8714,-2.8701,-2.8728,-2.8734,-2.874,-2.8743,-2.8588,-2.873,-2.873,-2.873,-2.873,-2.873,0,-2.7756,-2.7807,-2.7885,-2.7982,-2.805,-2.8055,-2.8133,-2.8189,-2.8275,-2.8345,-2.8419,-2.8526,-2.8615,-2.8679,-2.877,-2.882,-2.8827,-2.8843,-2.8839,-2.885,-2.8748,-2.8723,-2.8836,-2.8836,-2.8836,-2.8836,-2.8836,-2.8836,-2.7824,-2.7927,-2.7958,-2.8091,-2.8141,-2.8237,-2.8281,-2.8342,-2.8399,-2.8518,-2.8592,-2.8634,-2.8703,-2.88,-2.8882,-2.8899,-2.8932,-2.8947,-2.8964,-2.8868,-2.8856,-2.8845,-2.8822,-2.8954,-2.8954,-2.9059,-2.906,-2.9061]},{"header":{"parameterUnit":"m.s-1","parameterCategory":1,"la1":30.2991,"la2":30.254,"lo1":-89.0895,"lo2":-89.0444,"dy":0.0017,"dx":0.0017,"nx":28,"ny":28,"refTime":"2023-08-28T21:00:00:Z","depth":0,"parameterNumber":3,"parameterNumberName":"V-component_of_WINDS"},"data":[0,0,0,0,0,0,0,0,0,0,0,0,0,0,0,0,0,0,0,0,0,0,0,0,0,0,0,0,0,0,0,0,0,0,0,0,0,0,0,0,0,0,0,0,0,0,0,0,0,0,0,0,0,0,0,0,0,0,2.8385,2.8387,0,2.8561,2.8563,2.8565,2.869,2.8691,2.8692,2.8693,2.8871,2.8874,2.8878,0,0,0,0,0,0,0,0,0,0,0,0,0,2.8154,2.8158,2.8385,2.8387,2.839,2.8561,2.8563,2.8566,2.869,2.8691,2.8692,2.8694,2.8869,2.8874,2.8878,0,0,0,0,0,0,0,0,0,0,0,0,0,2.8285,2.8159,2.8385,2.8472,2.8482,2.856,2.8563,2.8566,2.869,2.8691,2.8693,2.8694,2.8868,2.8873,2.8879,2.8884,0,0,2.8896,2.8899,0,0,0,0,0,0,0,0,2.8277,2.8293,2.8457,2.8466,2.8477,2.8605,2.8547,2.8673,2.8689,2.8611,2.8693,2.8695,2.8781,2.8794,2.8823,2.8892,2.89,2.8897,2.89,2.8903,2.8904,0,0,0,0,0,0,0,2.8268,2.8286,2.8455,2.8459,2.8472,2.8502,2.8522,2.8571,2.8685,2.8618,2.8627,2.8646,2.8787,2.8818,2.8829,2.8902,2.8897,2.8902,2.8905,2.8907,2.8981,2.898,0,0,0,0,0,0,2.8246,2.8278,2.8449,2.846,2.8379,2.8505,2.8527,2.8563,2.8685,2.8705,2.8645,2.8652,2.8807,2.8822,2.8835,2.8847,2.8903,2.8908,2.8911,2.8983,2.8981,2.8979,0,0,0,0,0,0,2.824,2.826,2.8442,2.8372,2.8397,2.8507,2.8546,2.8565,2.8596,2.8706,2.8726,2.8656,2.8809,2.8827,2.887,2.8855,2.8911,2.8916,2.8984,2.8982,2.898,2.8871,0,0,0,0,0,0,2.8233,2.8257,2.8261,2.8371,2.84,2.8475,2.8545,2.8568,2.8606,2.8616,2.8721,2.874,2.8812,2.8861,2.8876,2.8864,2.892,2.8986,2.8983,2.8981,2.8876,2.8865,2.8856,0,0,0,0,0,2.8224,2.8223,2.826,2.828,2.8407,2.8474,2.8491,2.8574,2.8604,2.8608,2.8678,2.8737,2.8855,2.8865,2.8882,2.8871,2.8987,2.8984,2.8981,2.8881,2.8867,2.8856,0,0,0,0,0,0,2.8107,2.8239,2.8282,2.8316,2.8383,2.8495,2.8502,2.8557,2.8616,2.8623,2.8723,2.8746,2.8777,2.883,2.8838,2.8881,2.8928,2.8928,2.8846,2.8834,2.8824,2.881,2.8925,0,0,0,0,0,2.8086,2.8129,2.8242,2.8261,2.8292,2.8391,2.8423,2.8481,2.8554,2.8583,2.8656,2.8724,2.8776,2.8808,2.8863,2.8885,2.8908,2.8886,2.8876,2.8867,2.8865,2.8878,2.8869,2.8969,2.8969,2.8969,0,0,2.8041,2.8118,2.814,2.8239,2.8298,2.834,2.8414,2.8456,2.8487,2.8589,2.8634,2.869,2.8772,2.8804,2.8822,2.8848,2.8843,2.8863,2.8855,2.8858,2.8874,2.8864,2.8856,2.8966,2.8967,2.8967,0,0,2.7981,2.8044,2.8066,2.8123,2.8211,2.8277,2.8282,2.8386,2.8427,2.8473,2.855,2.8589,2.8677,2.8732,2.8771,2.873,2.8785,2.8745,2.8691,2.8702,2.8694,2.8688,2.8671,2.8664,2.8744,2.8743,2.8743,0,2.7914,2.798,2.8071,2.8107,2.8148,2.8243,2.8265,2.8316,2.8416,2.8441,2.847,2.8582,2.8644,2.8689,2.8679,2.8708,2.8716,2.8733,2.8688,2.8683,2.8678,2.8663,2.8656,2.8738,2.8738,2.8739,2.8739,0,2.7893,2.7937,2.7945,2.8039,2.8081,2.811,2.8203,2.8235,2.8289,2.8351,2.8396,2.8474,2.8545,2.856,2.8614,2.8612,2.8625,2.867,2.8719,2.8661,2.8648,2.8644,2.873,2.8732,2.8733,2.8735,0,0,2.7763,2.7906,2.7907,2.795,2.8054,2.809,2.8122,2.8192,2.8215,2.8282,2.831,2.8382,2.8424,2.8468,2.8529,2.854,2.8499,2.8583,2.8586,2.8562,2.8499,2.8462,2.8454,2.8537,2.8536,2.8536,2.8491,0,2.7716,2.778,2.7862,2.7897,2.7939,2.8029,2.8057,2.8123,2.8182,2.8224,2.829,2.8338,2.839,2.8417,2.8432,2.85,2.8487,2.8505,2.8562,2.8563,2.8536,2.8448,2.8411,2.8365,2.8487,2.8486,2.8485,0,2.767,2.7731,2.777,2.7869,2.7889,2.7913,2.7982,2.8023,2.8099,2.8141,2.8189,2.8255,2.8292,2.8337,2.8389,2.8399,2.8428,2.8465,2.8465,2.8471,2.8519,2.8449,2.8352,2.8344,2.8479,2.848,2.848,0,2.7568,2.766,2.7695,2.773,2.7846,2.786,2.7909,2.7987,2.8022,2.8083,2.8107,2.8171,2.8205,2.8253,2.8333,2.8359,2.8375,2.8427,2.8409,2.8406,2.8406,2.8404,2.8309,2.8428,2.8429,2.8429,2.8429,0,2.7506,2.7526,2.7651,2.7672,2.7696,2.779,2.7811,2.7868,2.7936,2.7969,2.8052,2.8081,2.8186,2.8227,2.829,2.8322,2.8338,2.8371,2.8387,2.8362,2.8357,2.838,2.8384,2.8427,2.8427,2.8428,2.8428,0,2.7395,2.748,2.7523,2.763,2.7657,2.767,2.776,2.7783,2.7847,2.7887,2.7902,2.8001,2.8054,2.8139,2.8217,2.8259,2.8278,2.8307,2.8252,2.8261,2.8237,2.8237,2.815,2.8143,2.8269,2.8267,2.8266,0,2.7349,2.7366,2.7474,2.7502,2.7548,2.7592,2.7629,2.7722,2.7756,2.7843,2.7855,2.7914,2.7966,2.8045,2.8123,2.8182,2.8211,2.8177,2.8221,2.8194,2.8207,2.8204,2.8205,2.8166,2.8164,2.8163,2.8161,0,2.7257,2.7297,2.7348,2.7412,2.7453,2.7508,2.7568,2.7586,2.7691,2.7726,2.778,2.782,2.7899,2.7955,2.8025,2.8075,2.8134,2.8147,2.8146,2.8119,2.8085,2.81,2.8221,2.8148,2.815,2.8151,2.8151,2.8152,2.7175,2.7194,2.7272,2.7324,2.7379,2.7431,2.7458,2.7524,2.7572,2.7643,2.7695,2.7745,2.7819,2.7919,2.7965,2.8005,2.8032,2.803,2.8029,2.8026,2.8015,2.8081,2.8018,2.8019,2.8019,2.802,2.802,0,2.7085,2.7139,2.7187,2.7266,2.7307,2.7361,2.7429,2.7459,2.7502,2.7567,2.7616,2.7677,2.7732,2.7814,2.7875,2.7891,2.792,2.7904,2.7902,2.7912,2.799,2.7983,2.7879,2.7879,2.7879,2.7879,2.7879,2.7879,2.7042,2.7076,2.7125,2.7186,2.7241,2.729,2.7324,2.7372,2.7424,2.7488,2.7534,2.7588,2.7659,2.7726,2.7778,2.7801,2.7818,2.7792,2.7823,2.7894,2.7907,2.7919,2.7914,2.7796,2.7796,2.7742,2.7742,2.7741]}]]